| time (UTC) | temp F | wind direction | speed MPH | gust MPH | rain 1hr in | rain 24hr in | rain mn in | humidity % | barometer mb |
| 20260505230557 | 63 | 14 | 0.0 | 3.0 | 0.00 | 0.00 | 0.00 | 72 | 1015.3 |
| 20260505230057 | 63 | 325 | 1.0 | 4.0 | 0.00 | 0.00 | 0.00 | 73 | 1015.2 |
| 20260505225553 | 63 | 232 | 1.0 | 4.0 | 0.00 | 0.00 | 0.00 | 72 | 1015.3 |
| 20260505225053 | 63 | 0 | 0.0 | 3.0 | 0.00 | 0.00 | 0.00 | 72 | 1015.3 |
| 20260505224556 | 63 | 5 | 0.0 | 3.0 | 0.00 | 0.00 | 0.00 | 70 | 1015.3 |
| 20260505224056 | 64 | 300 | 1.0 | 3.0 | 0.00 | 0.00 | 0.00 | 72 | 1015.4 |
| 20260505223557 | 63 | 5 | 0.0 | 3.0 | 0.00 | 0.00 | 0.00 | 71 | 1015.4 |
| 20260505223055 | 63 | 5 | 0.0 | 2.0 | 0.00 | 0.00 | 0.00 | 72 | 1015.4 |
| 20260505222556 | 63 | 0 | 0.0 | 2.0 | 0.00 | 0.00 | 0.00 | 72 | 1015.5 |
| 20260505222055 | 62 | 360 | 1.0 | 3.0 | 0.00 | 0.00 | 0.00 | 73 | 1015.5 |
| 20260505221555 | 62 | 271 | 0.0 | 3.0 | 0.00 | 0.00 | 0.00 | 73 | 1015.5 |
| 20260505221055 | 63 | 14 | 0.0 | 2.0 | 0.00 | 0.00 | 0.00 | 73 | 1015.5 |
| 20260505220555 | 62 | 0 | 0.0 | 3.0 | 0.00 | 0.00 | 0.00 | 74 | 1015.5 |
| 20260505220105 | 62 | 13 | 1.0 | 3.0 | 0.00 | 0.00 | 0.00 | 74 | 1015.6 |
| 20260505215556 | 62 | 285 | 1.0 | 3.0 | 0.00 | 0.00 | 0.00 | 74 | 1015.6 |
| 20260505215053 | 62 | 0 | 0.0 | 3.0 | 0.00 | 0.00 | 0.00 | 74 | 1015.5 |
| 20260505214603 | 61 | 224 | 1.0 | 4.0 | 0.00 | 0.00 | 0.00 | 73 | 1015.6 |
| 20260505214054 | 62 | 226 | 1.0 | 4.0 | 0.00 | 0.00 | 0.00 | 73 | 1015.6 |
| 20260505213557 | 62 | 232 | 1.0 | 4.0 | 0.00 | 0.00 | 0.00 | 73 | 1015.6 |
| 20260505213102 | 62 | 221 | 0.0 | 2.0 | 0.00 | 0.00 | 0.00 | 74 | 1015.6 |
| 20260505212557 | 62 | 0 | 0.0 | 5.0 | 0.00 | 0.00 | 0.00 | 73 | 1015.7 |
| 20260505212055 | 62 | 175 | 1.0 | 5.0 | 0.00 | 0.00 | 0.00 | 73 | 1015.6 |
| 20260505211602 | 62 | 0 | 1.0 | 5.0 | 0.00 | 0.00 | 0.00 | 73 | 1015.6 |
| 20260505211055 | 61 | 0 | 2.0 | 5.0 | 0.00 | 0.00 | 0.00 | 74 | 1015.7 |
| 20260505210553 | 62 | 0 | 1.0 | 3.0 | 0.00 | 0.00 | 0.00 | 72 | 1015.7 |
| 20260505210056 | 62 | 5 | 1.0 | 3.0 | 0.00 | 0.00 | 0.00 | 73 | 1015.7 |
| 20260505205556 | 62 | 188 | 0.0 | 4.0 | 0.00 | 0.00 | 0.00 | 73 | 1015.7 |
| 20260505205057 | 62 | 0 | 1.0 | 4.0 | 0.00 | 0.00 | 0.00 | 74 | 1015.7 |
| 20260505204609 | 61 | 171 | 1.0 | 6.0 | 0.00 | 0.00 | 0.00 | 73 | 1015.7 |
| 20260505204056 | 61 | 175 | 2.0 | 6.0 | 0.00 | 0.00 | 0.00 | 74 | 1015.8 |
| 20260505203553 | 61 | 0 | 0.0 | 3.0 | 0.00 | 0.00 | 0.00 | 75 | 1015.8 |
| 20260505203056 | 61 | 0 | 0.0 | 3.0 | 0.00 | 0.00 | 0.00 | 74 | 1015.8 |
| 20260505202553 | 61 | 237 | 1.0 | 3.0 | 0.00 | 0.00 | 0.00 | 75 | 1015.9 |
| 20260505202056 | 61 | 118 | 1.0 | 3.0 | 0.00 | 0.00 | 0.00 | 75 | 1015.9 |
| 20260505201554 | 61 | 187 | 1.0 | 3.0 | 0.00 | 0.00 | 0.00 | 76 | 1015.9 |
| 20260505201101 | 61 | 296 | 1.0 | 3.0 | 0.00 | 0.00 | 0.00 | 75 | 1015.9 |
| 20260505200555 | 60 | 0 | 1.0 | 3.0 | 0.00 | 0.00 | 0.00 | 77 | 1015.9 |
| 20260505200059 | 60 | 305 | 0.0 | 4.0 | 0.00 | 0.00 | 0.00 | 76 | 1016.0 |
| 20260505195557 | 60 | 265 | 2.0 | 6.0 | 0.00 | 0.00 | 0.00 | 75 | 1016.0 |
| 20260505195055 | 60 | 211 | 1.0 | 6.0 | 0.00 | 0.00 | 0.00 | 76 | 1015.9 |
| 20260505194555 | 60 | 293 | 3.0 | 6.0 | 0.00 | 0.00 | 0.00 | 75 | 1015.9 |
| 20260505194056 | 61 | 0 | 1.0 | 6.0 | 0.00 | 0.00 | 0.00 | 76 | 1016.0 |
| 20260505193555 | 60 | 286 | 1.0 | 6.0 | 0.00 | 0.00 | 0.00 | 75 | 1016.0 |
| 20260505193059 | 60 | 167 | 1.0 | 5.0 | 0.00 | 0.00 | 0.00 | 77 | 1016.0 |
| 20260505192555 | 60 | 109 | 1.0 | 6.0 | 0.00 | 0.00 | 0.00 | 75 | 1016.0 |
| 20260505192053 | 60 | 0 | 1.0 | 6.0 | 0.00 | 0.00 | 0.00 | 76 | 1016.0 |
| 20260505191558 | 61 | 159 | 1.0 | 4.0 | 0.00 | 0.00 | 0.00 | 76 | 1016.0 |
| 20260505191053 | 60 | 0 | 1.0 | 6.0 | 0.00 | 0.00 | 0.00 | 76 | 1016.0 |
| 20260505190555 | 60 | 155 | 2.0 | 6.0 | 0.00 | 0.00 | 0.00 | 79 | 1016.0 |
| 20260505190055 | 59 | 100 | 2.0 | 4.0 | 0.00 | 0.00 | 0.00 | 78 | 1015.9 |
| 20260505185556 | 59 | 0 | 0.0 | 3.0 | 0.00 | 0.00 | 0.00 | 78 | 1016.0 |
| 20260505185056 | 59 | 232 | 0.0 | 3.0 | 0.00 | 0.00 | 0.00 | 79 | 1016.1 |
| 20260505184602 | 59 | 144 | 1.0 | 4.0 | 0.00 | 0.00 | 0.00 | 78 | 1016.0 |
| 20260505184056 | 59 | 142 | 1.0 | 4.0 | 0.00 | 0.00 | 0.00 | 80 | 1016.1 |
| 20260505183554 | 58 | 0 | 0.0 | 4.0 | 0.00 | 0.00 | 0.00 | 80 | 1016.3 |
| 20260505183055 | 58 | 0 | 1.0 | 4.0 | 0.00 | 0.00 | 0.00 | 80 | 1016.3 |
| 20260505182555 | 58 | 0 | 0.0 | 3.0 | 0.00 | 0.00 | 0.00 | 80 | 1016.2 |
| 20260505182101 | 58 | 0 | 1.0 | 3.0 | 0.00 | 0.00 | 0.00 | 82 | 1016.2 |
| 20260505181559 | 57 | 0 | 1.0 | 3.0 | 0.00 | 0.00 | 0.00 | 81 | 1016.2 |
| 20260505181058 | 57 | 260 | 0.0 | 3.0 | 0.00 | 0.00 | 0.00 | 81 | 1016.2 |
| 20260505180557 | 57 | 310 | 0.0 | 3.0 | 0.00 | 0.00 | 0.00 | 83 | 1016.2 |
| 20260505180103 | 56 | 304 | 0.0 | 3.0 | 0.00 | 0.00 | 0.00 | 83 | 1016.3 |
| 20260505175553 | 56 | 292 | 0.0 | 4.0 | 0.00 | 0.00 | 0.00 | 83 | 1016.3 |
| 20260505175100 | 56 | 277 | 1.0 | 4.0 | 0.00 | 0.00 | 0.00 | 83 | 1016.3 |
| 20260505174610 | 57 | 273 | 1.0 | 3.0 | 0.00 | 0.00 | 0.00 | 83 | 1016.3 |
| 20260505174056 | 56 | 0 | 1.0 | 5.0 | 0.00 | 0.00 | 0.00 | 84 | 1016.2 |
| 20260505173553 | 56 | 0 | 1.0 | 6.0 | 0.00 | 0.00 | 0.00 | 84 | 1016.2 |
| 20260505173054 | 56 | 242 | 1.0 | 6.0 | 0.00 | 0.00 | 0.00 | 84 | 1016.1 |
| 20260505172559 | 55 | 267 | 2.0 | 6.0 | 0.00 | 0.00 | 0.00 | 85 | 1016.1 |
| 20260505172056 | 55 | 287 | 3.0 | 6.0 | 0.00 | 0.00 | 0.00 | 85 | 1016.0 |
| 20260505171556 | 56 | 300 | 3.0 | 6.0 | 0.00 | 0.00 | 0.00 | 84 | 1015.9 |
| 20260505171058 | 56 | 257 | 0.0 | 4.0 | 0.00 | 0.00 | 0.00 | 85 | 1015.9 |
| 20260505170554 | 56 | 254 | 1.0 | 4.0 | 0.00 | 0.00 | 0.00 | 85 | 1015.8 |
| 20260505170136 | 55 | 0 | 1.0 | 4.0 | 0.00 | 0.00 | 0.00 | 85 | 1015.8 |
| 20260505165553 | 56 | 198 | 1.0 | 4.0 | 0.00 | 0.00 | 0.00 | 85 | 1015.8 |
| 20260505165054 | 55 | 0 | 0.0 | 4.0 | 0.00 | 0.00 | 0.00 | 86 | 1015.8 |
| 20260505164558 | 55 | 244 | 2.0 | 5.0 | 0.00 | 0.00 | 0.00 | 85 | 1015.7 |
| 20260505164055 | 55 | 123 | 1.0 | 5.0 | 0.00 | 0.00 | 0.00 | 86 | 1015.6 |
| 20260505163556 | 55 | 0 | 2.0 | 4.0 | 0.00 | 0.00 | 0.00 | 86 | 1015.7 |
| 20260505163055 | 55 | 284 | 1.0 | 5.0 | 0.00 | 0.00 | 0.00 | 87 | 1015.7 |
| 20260505162556 | 55 | 0 | 1.0 | 5.0 | 0.00 | 0.00 | 0.00 | 87 | 1015.6 |
| 20260505162054 | 55 | 170 | 0.0 | 3.0 | 0.00 | 0.00 | 0.00 | 87 | 1015.7 |
| 20260505161602 | 55 | 170 | 0.0 | 3.0 | 0.00 | 0.00 | 0.00 | 87 | 1015.6 |
| 20260505161055 | 55 | 186 | 0.0 | 2.0 | 0.00 | 0.00 | 0.00 | 87 | 1015.5 |
| 20260505160559 | 55 | 0 | 0.0 | 4.0 | 0.00 | 0.00 | 0.00 | 87 | 1015.5 |
| 20260505153100 | 54 | 0 | 1.0 | 4.0 | 0.00 | 0.00 | 0.00 | 88 | 1015.6 |
| 20260505152556 | 54 | 0 | 2.0 | 4.0 | 0.00 | 0.00 | 0.00 | 87 | 1015.5 |
| 20260505152055 | 54 | 0 | 0.0 | 4.0 | 0.00 | 0.00 | 0.00 | 88 | 1015.5 |
| 20260505151556 | 54 | 173 | 1.0 | 6.0 | 0.00 | 0.00 | 0.00 | 87 | 1015.6 |
| 20260505151055 | 54 | 0 | 2.0 | 6.0 | 0.00 | 0.00 | 0.00 | 88 | 1015.5 |
| 20260505150557 | 54 | 183 | 1.0 | 6.0 | 0.00 | 0.00 | 0.00 | 88 | 1015.6 |
| 20260505140555 | 53 | 192 | 1.0 | 4.0 | 0.00 | 0.00 | 0.00 | 87 | 1015.1 |
| 20260505124557 | 53 | 0 | 0.0 | 4.0 | 0.00 | 0.00 | 0.00 | 87 | 1014.7 |
| 20260505124055 | 53 | 0 | 0.0 | 4.0 | 0.00 | 0.00 | 0.00 | 87 | 1014.7 |
| 20260505123556 | 53 | 0 | 1.0 | 4.0 | 0.00 | 0.00 | 0.00 | 87 | 1014.7 |
| 20260505123112 | 53 | 227 | 0.0 | 6.0 | 0.00 | 0.00 | 0.00 | 87 | 1014.6 |
| 20260505122557 | 53 | 0 | 0.0 | 6.0 | 0.00 | 0.00 | 0.00 | 87 | 1014.6 |
| 20260505122055 | 53 | 128 | 1.0 | 5.0 | 0.00 | 0.00 | 0.00 | 86 | 1014.7 |
| 20260505121556 | 53 | 157 | 1.0 | 3.0 | 0.00 | 0.00 | 0.00 | 87 | 1014.6 |
| 20260505121056 | 54 | 0 | 0.0 | 3.0 | 0.00 | 0.00 | 0.00 | 87 | 1014.6 |
| 20260505120552 | 53 | 182 | 1.0 | 4.0 | 0.00 | 0.00 | 0.00 | 87 | 1014.6 |
| 20260505120059 | 53 | 171 | 0.0 | 4.0 | 0.00 | 0.00 | 0.00 | 86 | 1014.5 |
| 20260505115559 | 53 | 0 | 0.0 | 3.0 | 0.00 | 0.00 | 0.00 | 87 | 1014.6 |
| 20260505115057 | 53 | 0 | 0.0 | 4.0 | 0.00 | 0.00 | 0.00 | 86 | 1014.6 |
| 20260505114614 | 53 | 0 | 1.0 | 4.0 | 0.00 | 0.00 | 0.00 | 86 | 1014.5 |
| 20260505114057 | 53 | 0 | 1.0 | 5.0 | 0.00 | 0.00 | 0.00 | 87 | 1014.5 |
| 20260505113558 | 53 | 0 | 1.0 | 5.0 | 0.00 | 0.00 | 0.00 | 86 | 1014.6 |
| 20260505113055 | 53 | 0 | 1.0 | 4.0 | 0.00 | 0.00 | 0.00 | 87 | 1014.4 |
| 20260505112559 | 53 | 245 | 0.0 | 4.0 | 0.00 | 0.00 | 0.00 | 86 | 1014.5 |
| 20260505112053 | 53 | 0 | 1.0 | 4.0 | 0.00 | 0.00 | 0.00 | 86 | 1014.4 |
| 20260505111607 | 53 | 173 | 1.0 | 4.0 | 0.00 | 0.00 | 0.00 | 87 | 1014.5 |
| 20260505111056 | 53 | 169 | 1.0 | 4.0 | 0.00 | 0.00 | 0.00 | 87 | 1014.4 |
| 20260505110554 | 53 | 204 | 0.0 | 5.0 | 0.00 | 0.00 | 0.00 | 87 | 1014.4 |
| 20260505102053 | 53 | 155 | 1.0 | 3.0 | 0.00 | 0.00 | 0.00 | 87 | 1014.1 |
| 20260505101607 | 53 | 157 | 0.0 | 3.0 | 0.00 | 0.00 | 0.00 | 87 | 1014.1 |
| 20260505101053 | 53 | 157 | 0.0 | 3.0 | 0.00 | 0.00 | 0.00 | 87 | 1014.1 |
| 20260505100557 | 53 | 157 | 0.0 | 2.0 | 0.00 | 0.00 | 0.00 | 87 | 1014.0 |
| 20260505100057 | 53 | 157 | 0.0 | 2.0 | 0.00 | 0.00 | 0.00 | 87 | 1014.2 |
| 20260505095556 | 53 | 0 | 0.0 | 2.0 | 0.00 | 0.00 | 0.00 | 87 | 1014.1 |
| 20260505095057 | 53 | 157 | 0.0 | 2.0 | 0.00 | 0.00 | 0.00 | 87 | 1014.1 |
| 20260505094600 | 53 | 0 | 0.0 | 4.0 | 0.00 | 0.00 | 0.00 | 87 | 1014.1 |
| 20260505094054 | 53 | 157 | 1.0 | 4.0 | 0.00 | 0.00 | 0.00 | 87 | 1014.0 |
| 20260505093557 | 53 | 163 | 0.0 | 3.0 | 0.00 | 0.00 | 0.00 | 87 | 1014.0 |
| 20260505093100 | 53 | 0 | 0.0 | 5.0 | 0.00 | 0.00 | 0.00 | 87 | 1014.0 |
| 20260505092554 | 53 | 150 | 0.0 | 5.0 | 0.00 | 0.00 | 0.00 | 86 | 1013.9 |
| 20260505092054 | 53 | 166 | 2.0 | 5.0 | 0.00 | 0.00 | 0.00 | 87 | 1013.9 |
| 20260505091558 | 53 | 0 | 1.0 | 5.0 | 0.00 | 0.00 | 0.00 | 86 | 1013.9 |
| 20260505091054 | 53 | 178 | 2.0 | 5.0 | 0.00 | 0.00 | 0.00 | 86 | 1013.8 |
| 20260505090553 | 53 | 0 | 2.0 | 5.0 | 0.00 | 0.00 | 0.00 | 86 | 1013.7 |
| 20260505090100 | 53 | 195 | 0.0 | 2.0 | 0.00 | 0.00 | 0.00 | 86 | 1013.7 |
| 20260505085556 | 53 | 0 | 0.0 | 2.0 | 0.00 | 0.00 | 0.00 | 86 | 1013.6 |
| 20260505085054 | 53 | 0 | 0.0 | 2.0 | 0.00 | 0.00 | 0.00 | 85 | 1013.5 |
| 20260505084555 | 54 | 0 | 0.0 | 3.0 | 0.00 | 0.00 | 0.00 | 85 | 1013.7 |
| 20260505084054 | 54 | 0 | 0.0 | 3.0 | 0.00 | 0.00 | 0.00 | 85 | 1013.6 |
| 20260505083554 | 54 | 0 | 0.0 | 4.0 | 0.00 | 0.00 | 0.00 | 84 | 1013.6 |
| 20260505083117 | 54 | 0 | 0.0 | 5.0 | 0.00 | 0.00 | 0.00 | 84 | 1013.7 |
| 20260505082555 | 54 | 0 | 1.0 | 5.0 | 0.00 | 0.00 | 0.00 | 84 | 1013.6 |
| 20260505082057 | 54 | 175 | 2.0 | 6.0 | 0.00 | 0.00 | 0.00 | 84 | 1013.6 |
| 20260505081602 | 54 | 201 | 1.0 | 6.0 | 0.00 | 0.00 | 0.00 | 84 | 1013.6 |
| 20260505081054 | 55 | 0 | 1.0 | 5.0 | 0.00 | 0.00 | 0.00 | 83 | 1013.5 |
| 20260505080553 | 55 | 178 | 2.0 | 5.0 | 0.00 | 0.00 | 0.00 | 84 | 1013.5 |
| 20260505080056 | 55 | 171 | 0.0 | 4.0 | 0.00 | 0.00 | 0.00 | 83 | 1013.5 |
| 20260505075554 | 55 | 164 | 0.0 | 4.0 | 0.00 | 0.00 | 0.00 | 83 | 1013.4 |
| 20260505075054 | 55 | 0 | 0.0 | 5.0 | 0.00 | 0.00 | 0.00 | 83 | 1013.4 |
| 20260505074554 | 55 | 0 | 1.0 | 5.0 | 0.00 | 0.00 | 0.00 | 83 | 1013.3 |
| 20260505074055 | 55 | 0 | 0.0 | 3.0 | 0.00 | 0.00 | 0.00 | 83 | 1013.2 |
| 20260505073556 | 55 | 0 | 0.0 | 3.0 | 0.00 | 0.00 | 0.00 | 82 | 1013.1 |
| 20260505073105 | 55 | 0 | 1.0 | 3.0 | 0.00 | 0.00 | 0.00 | 82 | 1012.9 |
| 20260505072554 | 56 | 0 | 0.0 | 4.0 | 0.00 | 0.00 | 0.00 | 82 | 1012.9 |
| 20260505072054 | 56 | 164 | 1.0 | 8.0 | 0.00 | 0.00 | 0.00 | 82 | 1012.9 |
| 20260505071554 | 56 | 231 | 1.0 | 8.0 | 0.00 | 0.00 | 0.00 | 82 | 1012.7 |
| 20260505071054 | 56 | 0 | 1.0 | 5.0 | 0.00 | 0.00 | 0.00 | 82 | 1012.8 |
| 20260505070554 | 56 | 153 | 0.0 | 7.0 | 0.00 | 0.00 | 0.00 | 82 | 1012.7 |
| 20260505070058 | 56 | 0 | 1.0 | 7.0 | 0.00 | 0.00 | 0.00 | 82 | 1012.7 |
| 20260505065553 | 56 | 186 | 0.0 | 4.0 | 0.00 | 0.00 | 0.00 | 82 | 1012.7 |
| 20260505065057 | 56 | 219 | 1.0 | 8.0 | 0.00 | 0.00 | 0.00 | 81 | 1012.6 |
| 20260505064603 | 56 | 182 | 2.0 | 8.0 | 0.00 | 0.00 | 0.00 | 81 | 1012.5 |
| 20260505064055 | 57 | 168 | 3.0 | 9.0 | 0.00 | 0.00 | 0.00 | 81 | 1012.5 |
| 20260505063557 | 57 | 183 | 2.0 | 9.0 | 0.00 | 0.00 | 0.00 | 81 | 1012.4 |
| 20260505063057 | 57 | 175 | 2.0 | 8.0 | 0.00 | 0.00 | 0.00 | 81 | 1012.4 |
| 20260505062554 | 57 | 209 | 2.0 | 7.0 | 0.00 | 0.00 | 0.00 | 80 | 1012.3 |
| 20260505062052 | 58 | 196 | 1.0 | 6.0 | 0.00 | 0.00 | 0.00 | 80 | 1012.3 |
| 20260505061604 | 58 | 184 | 2.0 | 6.0 | 0.00 | 0.00 | 0.00 | 79 | 1012.3 |
| 20260505061057 | 58 | 172 | 1.0 | 9.0 | 0.00 | 0.00 | 0.00 | 79 | 1012.3 |
| 20260505060557 | 58 | 246 | 1.0 | 9.0 | 0.00 | 0.00 | 0.00 | 79 | 1012.2 |
| 20260505055558 | 59 | 188 | 1.0 | 7.0 | 0.00 | 0.00 | 0.00 | 78 | 1012.3 |
| 20260505055056 | 59 | 206 | 1.0 | 7.0 | 0.00 | 0.00 | 0.00 | 77 | 1012.3 |
| 20260505054605 | 59 | 215 | 2.0 | 10.0 | 0.00 | 0.00 | 0.00 | 76 | 1012.2 |
| 20260505054053 | 59 | 181 | 3.0 | 10.0 | 0.00 | 0.00 | 0.00 | 76 | 1012.2 |
| 20260505053553 | 60 | 184 | 4.0 | 10.0 | 0.00 | 0.00 | 0.00 | 76 | 1012.1 |
| 20260505053110 | 60 | 174 | 2.0 | 9.0 | 0.00 | 0.00 | 0.00 | 75 | 1012.0 |
| 20260505052556 | 60 | 143 | 3.0 | 8.0 | 0.00 | 0.00 | 0.00 | 75 | 1012.1 |
| 20260505052056 | 61 | 153 | 3.0 | 8.0 | 0.00 | 0.00 | 0.00 | 75 | 1012.0 |
| 20260505051556 | 61 | 180 | 2.0 | 9.0 | 0.00 | 0.00 | 0.00 | 74 | 1012.0 |
| 20260505051054 | 62 | 234 | 4.0 | 9.0 | 0.00 | 0.00 | 0.00 | 74 | 1012.0 |
| 20260505050553 | 62 | 169 | 1.0 | 6.0 | 0.00 | 0.00 | 0.00 | 73 | 1011.9 |
| 20260505041613 | 66 | 229 | 2.0 | 5.0 | 0.00 | 0.00 | 0.00 | 70 | 1011.2 |
| 20260505041054 | 66 | 190 | 1.0 | 9.0 | 0.00 | 0.00 | 0.00 | 70 | 1011.1 |
| 20260505040553 | 66 | 229 | 1.0 | 9.0 | 0.00 | 0.00 | 0.00 | 70 | 1010.9 |
| 20260505040057 | 66 | 235 | 0.0 | 8.0 | 0.00 | 0.00 | 0.00 | 71 | 1010.8 |
| 20260505035557 | 66 | 231 | 1.0 | 8.0 | 0.00 | 0.00 | 0.00 | 71 | 1010.8 |
| 20260505035057 | 66 | 243 | 1.0 | 5.0 | 0.00 | 0.00 | 0.00 | 71 | 1010.8 |
| 20260505034601 | 66 | 261 | 1.0 | 7.0 | 0.00 | 0.00 | 0.00 | 71 | 1010.6 |
| 20260505034057 | 67 | 242 | 1.0 | 7.0 | 0.00 | 0.00 | 0.00 | 70 | 1010.4 |
| 20260505033554 | 67 | 226 | 2.0 | 5.0 | 0.00 | 0.00 | 0.00 | 71 | 1010.4 |
| 20260505033056 | 67 | 146 | 1.0 | 4.0 | 0.00 | 0.00 | 0.00 | 71 | 1010.4 |
| 20260505032557 | 67 | 267 | 1.0 | 4.0 | 0.00 | 0.00 | 0.00 | 71 | 1010.4 |
| 20260505032056 | 68 | 232 | 1.0 | 7.0 | 0.00 | 0.00 | 0.00 | 71 | 1010.4 |
| 20260505031607 | 68 | 248 | 0.0 | 9.0 | 0.00 | 0.00 | 0.00 | 71 | 1010.3 |
| 20260505031103 | 68 | 269 | 3.0 | 9.0 | 0.00 | 0.00 | 0.00 | 70 | 1010.2 |
| 20260505030556 | 69 | 0 | 1.0 | 6.0 | 0.00 | 0.00 | 0.00 | 70 | 1010.2 |
| 20260505030057 | 69 | 153 | 2.0 | 6.0 | 0.00 | 0.00 | 0.00 | 70 | 1010.0 |
| 20260505025553 | 69 | 0 | 1.0 | 6.0 | 0.00 | 0.00 | 0.00 | 70 | 1009.9 |
| 20260505025059 | 69 | 192 | 0.0 | 4.0 | 0.00 | 0.00 | 0.00 | 69 | 1009.9 |
| 20260505024555 | 69 | 187 | 1.0 | 4.0 | 0.00 | 0.00 | 0.00 | 69 | 1009.9 |
| 20260505024056 | 69 | 270 | 2.0 | 4.0 | 0.00 | 0.00 | 0.00 | 68 | 1009.9 |
| 20260505023557 | 70 | 181 | 0.0 | 4.0 | 0.00 | 0.00 | 0.00 | 68 | 1009.8 |
| 20260505023101 | 70 | 173 | 0.0 | 6.0 | 0.00 | 0.00 | 0.00 | 68 | 1009.9 |
| 20260505022554 | 70 | 0 | 1.0 | 8.0 | 0.00 | 0.00 | 0.00 | 68 | 1009.7 |
| 20260505022057 | 70 | 269 | 4.0 | 8.0 | 0.00 | 0.00 | 0.00 | 67 | 1009.7 |
| 20260505021600 | 70 | 197 | 2.0 | 9.0 | 0.00 | 0.00 | 0.00 | 67 | 1009.8 |
| 20260505021053 | 71 | 200 | 2.0 | 9.0 | 0.00 | 0.00 | 0.00 | 67 | 1009.8 |
| 20260505020553 | 71 | 220 | 1.0 | 10.0 | 0.00 | 0.00 | 0.00 | 66 | 1009.8 |
| 20260505020055 | 71 | 166 | 2.0 | 10.0 | 0.00 | 0.00 | 0.00 | 67 | 1009.8 |
| 20260505015557 | 71 | 193 | 1.0 | 10.0 | 0.00 | 0.00 | 0.00 | 66 | 1009.8 |
| 20260505015056 | 71 | 273 | 2.0 | 12.0 | 0.00 | 0.00 | 0.00 | 65 | 1009.7 |
| 20260505014556 | 71 | 138 | 3.0 | 12.0 | 0.00 | 0.00 | 0.00 | 65 | 1009.8 |
| 20260505014058 | 71 | 0 | 2.0 | 9.0 | 0.00 | 0.00 | 0.00 | 65 | 1009.8 |
| 20260505013556 | 72 | 166 | 1.0 | 6.0 | 0.00 | 0.00 | 0.00 | 64 | 1009.9 |
| 20260505013100 | 72 | 220 | 0.0 | 7.0 | 0.00 | 0.00 | 0.00 | 65 | 1010.0 |
| 20260505012554 | 72 | 184 | 3.0 | 8.0 | 0.00 | 0.00 | 0.00 | 64 | 1010.0 |
| 20260505012057 | 72 | 184 | 3.0 | 8.0 | 0.00 | 0.00 | 0.00 | 64 | 1009.9 |
| 20260505011557 | 72 | 161 | 1.0 | 8.0 | 0.00 | 0.00 | 0.00 | 63 | 1010.1 |
| 20260505011054 | 73 | 205 | 0.0 | 8.0 | 0.00 | 0.00 | 0.00 | 64 | 1010.1 |
| 20260505010553 | 72 | 256 | 2.0 | 8.0 | 0.00 | 0.00 | 0.00 | 63 | 1010.2 |
| 20260505010058 | 72 | 167 | 1.0 | 9.0 | 0.00 | 0.00 | 0.00 | 63 | 1010.2 |
| 20260505005554 | 71 | 278 | 3.0 | 10.0 | 0.00 | 0.00 | 0.00 | 65 | 1010.3 |
| 20260505005056 | 72 | 178 | 2.0 | 10.0 | 0.00 | 0.00 | 0.00 | 64 | 1010.4 |
| 20260505004556 | 72 | 265 | 1.0 | 9.0 | 0.00 | 0.00 | 0.00 | 64 | 1010.4 |
| 20260505004055 | 72 | 289 | 3.0 | 9.0 | 0.00 | 0.00 | 0.00 | 64 | 1010.4 |
| 20260505003554 | 72 | 146 | 3.0 | 8.0 | 0.00 | 0.00 | 0.00 | 63 | 1010.3 |
| 20260505003057 | 72 | 246 | 2.0 | 9.0 | 0.00 | 0.00 | 0.00 | 63 | 1010.4 |
| 20260505002555 | 72 | 195 | 3.0 | 9.0 | 0.00 | 0.00 | 0.00 | 63 | 1010.5 |
| 20260505002056 | 72 | 188 | 2.0 | 10.0 | 0.00 | 0.00 | 0.00 | 64 | 1010.4 |
| 20260505001556 | 71 | 261 | 4.0 | 10.0 | 0.00 | 0.00 | 0.00 | 63 | 1010.6 |
| 20260505001053 | 72 | 233 | 3.0 | 9.0 | 0.00 | 0.00 | 0.00 | 63 | 1010.6 |
| 20260505000554 | 72 | 202 | 3.0 | 8.0 | 0.00 | 0.00 | 0.00 | 63 | 1010.6 |
| 20260505000107 | 71 | 180 | 3.0 | 12.0 | 0.00 | 0.00 | 0.00 | 64 | 1010.6 |
| 20260504235557 | 72 | 196 | 2.0 | 13.0 | 0.00 | 0.00 | 0.00 | 63 | 1010.6 |
| 20260504235054 | 72 | 178 | 2.0 | 13.0 | 0.00 | 0.00 | 0.00 | 63 | 1010.6 |
| 20260504234624 | 71 | 170 | 5.0 | 13.0 | 0.00 | 0.00 | 0.00 | 64 | 1010.7 |
| 20260504234053 | 72 | 236 | 3.0 | 11.0 | 0.00 | 0.00 | 0.00 | 62 | 1010.7 |
| 20260504233553 | 72 | 0 | 3.0 | 11.0 | 0.00 | 0.00 | 0.00 | 63 | 1010.7 |
| 20260504233058 | 71 | 242 | 4.0 | 9.0 | 0.00 | 0.00 | 0.00 | 63 | 1010.8 |
| 20260504232554 | 72 | 256 | 2.0 | 8.0 | 0.00 | 0.00 | 0.00 | 62 | 1010.8 |
| 20260504232054 | 72 | 146 | 2.0 | 10.0 | 0.00 | 0.00 | 0.00 | 62 | 1010.8 |
| 20260504231602 | 71 | 145 | 3.0 | 11.0 | 0.00 | 0.00 | 0.00 | 64 | 1010.9 |
| 20260504231054 | 72 | 158 | 2.0 | 11.0 | 0.00 | 0.00 | 0.00 | 62 | 1010.9 |